Pagina principale
METAR-TAF:

METAR-TAF

Aeroporti :

Monte Terminillo, Italia

latitudine: 42-28N, longitudine: 012-59E, altezza: 1874 m

Osservazione

Il bollettino è stato emesso 1 ora e 3 minuti fa, alle 17:55 UTC
Vento 10 kt da direzioni variabili con raffiche fino a 20 kt
Temperature 2°C
Umidità 100%
Pressione 1008 hPa

METAR: LIRK 191755Z AUTO VRB10G20KT //// 02/02 Q1008

Ora: 20:58 (18:58 UTC)


TAF: mancante

Osservazioni e previsioni meteorologiche di più di 4000 aeroporti (messaggi METAR e TAF).

Le stazioni disponibili sono rappresentate dai dischi gialli e rossi sulla carta.

Puntare il mouse per vedere il nome della stazione.

Clicca sopra per visualizzare le osservazioni e previsioni meteorologiche.

Per cambiare la mappa : fare clic sui pulsanti verdi con una croce nera per ingrandire, il pulsante verde con un trattino per diminuire, o sulla freccia verde per le mappe adiacenti.


METAR-TAF: